FALCON 9 DEB

Last updated on Wed Aug 16 2023 01:02:03 GMT+0100 (British Summer Time)

1 57385U 23099BK 23219.42355434 .00384601 68816-4 80544-3 0 9997 2 57385 43.0078 350.2930 0011011 113.4696 246.7340 15.98049207 3866

Satellite not in orbit